Time,TemperatureF,DewpointF,PressureIn,WindDirection,WindDirectionDegrees,WindSpeedMPH,WindSpeedGustMPH,Humidity,HourlyPrecipIn,Conditions,Clouds,dailyrainin,SoftwareType,DateUTC
2018-05-27 00:07:00,83.0,55.0,-100.00,North,5,0.0,0.0,37,-99.99,,,-99.99,,2018-05-27 00:07:00,
2018-05-27 00:36:00,83.0,57.0,-100.00,North,5,0.0,0.0,42,-99.99,,,-99.99,,2018-05-27 00:36:00,
2018-05-27 01:07:00,81.0,57.0,-100.00,North,5,0.0,0.0,45,-99.99,,,-99.99,,2018-05-27 01:07:00,
2018-05-27 01:36:00,76.0,63.0,-100.00,North,5,0.0,0.0,62,-99.99,,,-99.99,,2018-05-27 01:36:00,
2018-05-27 02:07:00,74.0,61.0,-100.00,North,5,0.0,0.0,64,-99.99,,,-99.99,,2018-05-27 02:07:00,
2018-05-27 02:36:00,72.0,61.0,-100.00,North,5,0.0,0.0,67,-99.99,,,-99.99,,2018-05-27 02:36:00,
2018-05-27 03:06:00,71.0,61.0,-100.00,North,5,0.0,0.0,70,-99.99,,,-99.99,,2018-05-27 03:06:00,
2018-05-27 03:36:00,66.0,61.0,-100.00,North,5,0.0,0.0,84,-99.99,,,-99.99,,2018-05-27 03:36:00,
2018-05-27 04:07:00,64.0,59.0,-100.00,North,5,0.0,0.0,84,-99.99,,,-99.99,,2018-05-27 04:07:00,
2018-05-27 04:37:00,63.0,61.0,-100.00,North,5,0.0,0.0,92,-99.99,,,-99.99,,2018-05-27 04:37:00,
2018-05-27 05:07:00,62.0,59.0,-100.00,North,5,0.0,0.0,89,-99.99,,,-99.99,,2018-05-27 05:07:00,
2018-05-27 05:36:00,61.0,59.0,-100.00,North,5,0.0,0.0,90,-99.99,,,-99.99,,2018-05-27 05:36:00,
2018-05-27 06:07:00,61.0,59.0,-100.00,North,5,0.0,0.0,93,-99.99,,,-99.99,,2018-05-27 06:07:00,
2018-05-27 06:36:00,60.0,59.0,-100.00,North,5,0.0,0.0,96,-99.99,,,-99.99,,2018-05-27 06:36:00,
2018-05-27 07:07:00,59.0,57.0,-100.00,North,5,0.0,0.0,95,-99.99,,,-99.99,,2018-05-27 07:07:00,
2018-05-27 08:07:00,59.0,59.0,-100.00,North,5,0.0,0.0,96,-99.99,,,-99.99,,2018-05-27 08:07:00,
2018-05-27 08:36:00,58.0,57.0,-100.00,North,5,0.0,0.0,95,-99.99,,,-99.99,,2018-05-27 08:36:00,
2018-05-27 09:06:00,58.0,57.0,-100.00,North,5,0.0,0.0,95,-99.99,,,-99.99,,2018-05-27 09:06:00,
2018-05-27 09:36:00,61.0,61.0,-100.00,North,5,0.0,0.0,97,-99.99,,,-99.99,,2018-05-27 09:36:00,
2018-05-27 10:07:00,57.0,55.0,-100.00,North,5,0.0,0.0,96,-99.99,,,-99.99,,2018-05-27 10:07:00,
2018-05-27 10:35:00,57.0,57.0,-100.00,North,-9999,-999.9,-999.0,96,-99.99,,,-99.99,,2018-05-27 10:35:00,
2018-05-27 11:06:00,56.0,55.0,-100.00,North,5,0.0,0.0,97,-99.99,,,-99.99,,2018-05-27 11:06:00,
2018-05-27 12:36:00,62.0,61.0,-100.00,North,5,0.0,0.0,92,-99.99,,,-99.99,,2018-05-27 12:36:00,
2018-05-27 13:36:00,66.0,63.0,-100.00,North,5,0.0,0.0,87,-99.99,,,-99.99,,2018-05-27 13:36:00,
2018-05-27 14:06:00,68.0,64.0,-100.00,North,5,0.0,0.0,85,-99.99,,,-99.99,,2018-05-27 14:06:00,
2018-05-27 14:36:00,69.0,63.0,-100.00,North,5,0.0,0.0,81,-99.99,,,-99.99,,2018-05-27 14:36:00,
2018-05-27 15:06:00,72.0,63.0,-100.00,North,5,0.0,0.0,74,-99.99,,,-99.99,,2018-05-27 15:06:00,
2018-05-27 15:37:00,71.0,57.0,-100.00,North,5,0.0,0.0,63,-99.99,,,-99.99,,2018-05-27 15:37:00,
2018-05-27 16:06:00,69.0,57.0,-100.00,North,5,0.0,0.0,67,-99.99,,,-99.99,,2018-05-27 16:06:00,
2018-05-27 16:37:00,66.0,61.0,-100.00,North,5,0.0,-999.0,82,-99.99,,,-99.99,,2018-05-27 16:37:00,
2018-05-27 17:07:00,66.0,61.0,-100.00,North,5,0.0,0.0,81,-99.99,,,-99.99,,2018-05-27 17:07:00,
2018-05-27 17:37:00,70.0,61.0,-100.00,North,5,0.0,0.0,72,-99.99,,,-99.99,,2018-05-27 17:37:00,
2018-05-27 18:07:00,72.0,61.0,-100.00,North,5,0.0,0.0,67,-99.99,,,-99.99,,2018-05-27 18:07:00,
2018-05-27 18:37:00,73.0,59.0,-100.00,North,5,0.0,0.0,61,-99.99,,,-99.99,,2018-05-27 18:37:00,
2018-05-27 19:06:00,72.0,64.0,-100.00,North,5,0.0,0.0,75,-99.99,,,-99.99,,2018-05-27 19:06:00,
2018-05-27 19:36:00,73.0,63.0,-100.00,North,5,0.0,0.0,70,-99.99,,,-99.99,,2018-05-27 19:36:00,
2018-05-27 20:06:00,72.0,63.0,-100.00,North,5,0.0,0.0,71,-99.99,,,-99.99,,2018-05-27 20:06:00,
2018-05-27 20:36:00,76.0,63.0,-100.00,North,5,0.0,0.0,64,-99.99,,,-99.99,,2018-05-27 20:36:00,
2018-05-27 21:06:00,75.0,61.0,-100.00,North,5,0.0,0.0,61,-99.99,,,-99.99,,2018-05-27 21:06:00,
2018-05-27 21:36:00,77.0,63.0,-100.00,North,5,0.0,0.0,59,-99.99,,,-99.99,,2018-05-27 21:36:00,
2018-05-27 22:06:00,78.0,61.0,-100.00,North,5,0.0,0.0,54,-99.99,,,-99.99,,2018-05-27 22:06:00,